owner,sensor,date,latitude,longitude,sea_water_turbidity,qcFlag 
SCCF RECON,ioos:station:SCCF:11:1,2012-07-01T00:00:00Z,26.4679,-82.0631,20.97,1111122 
SCCF RECON,ioos:station:SCCF:11:1,2012-07-01T01:00:00Z,26.4679,-82.0631,24.5,1111122 
SCCF RECON,ioos:station:SCCF:11:1,2012-07-01T02:00:00Z,26.4679,-82.0631,18.48,1111122 
SCCF RECON,ioos:station:SCCF:11:1,2012-07-01T03:00:00Z,26.4679,-82.0631,16.69,1111122 
SCCF RECON,ioos:station:SCCF:11:1,2012-07-01T04:00:00Z,26.4679,-82.0631,12.35,1111122 
SCCF RECON,ioos:station:SCCF:11:1,2012-07-01T05:00:00Z,26.4679,-82.0631,16.72,1111122 
SCCF RECON,ioos:station:SCCF:11:1,2012-07-01T06:00:00Z,26.4679,-82.0631,12.18,1111122 
SCCF RECON,ioos:station:SCCF:11:1,2012-07-01T07:00:00Z,26.4679,-82.0631,10.58,1111122 
SCCF RECON,ioos:station:SCCF:11:1,2012-07-01T08:00:00Z,26.4679,-82.0631,11.98,1111122 
SCCF RECON,ioos:station:SCCF:11:1,2012-07-01T09:00:00Z,26.4679,-82.0631,12.05,1111122 
SCCF RECON,ioos:station:SCCF:11:1,2012-07-01T10:00:00Z,26.4679,-82.0631,8.23,1111122 
SCCF RECON,ioos:station:SCCF:11:1,2012-07-01T11:00:00Z,26.4679,-82.0631,12.25,1111122 
SCCF RECON,ioos:station:SCCF:11:1,2012-07-01T12:00:00Z,26.4679,-82.0631,11.32,1111122 
SCCF RECON,ioos:station:SCCF:11:1,2012-07-01T13:00:00Z,26.4679,-82.0631,11.76,1111122 
SCCF RECON,ioos:station:SCCF:11:1,2012-07-01T14:00:00Z,26.4679,-82.0631,12.66,1111122 
SCCF RECON,ioos:station:SCCF:11:1,2012-07-01T15:00:00Z,26.4679,-82.0631,9.45,1111122 
SCCF RECON,ioos:station:SCCF:11:1,2012-07-01T16:00:00Z,26.4679,-82.0631,7.46,1111122 
SCCF RECON,ioos:station:SCCF:11:1,2012-07-01T17:00:00Z,26.4679,-82.0631,8.77,1111122 
SCCF RECON,ioos:station:SCCF:11:1,2012-07-01T18:00:00Z,26.4679,-82.0631,10.61,1111122 
SCCF RECON,ioos:station:SCCF:11:1,2012-07-01T19:00:00Z,26.4679,-82.0631,9.67,1111122 
SCCF RECON,ioos:station:SCCF:11:1,2012-07-01T20:00:00Z,26.4679,-82.0631,10.44,1111122 
SCCF RECON,ioos:station:SCCF:11:1,2012-07-01T21:00:00Z,26.4679,-82.0631,11.47,1111122 
SCCF RECON,ioos:station:SCCF:11:1,2012-07-01T22:00:00Z,26.4679,-82.0631,12.43,1111122 
SCCF RECON,ioos:station:SCCF:11:1,2012-07-01T23:00:00Z,26.4679,-82.0631,11.99,1111122 
SCCF RECON,ioos:station:SCCF:11:1,2012-07-02T00:00:00Z,26.4679,-82.0631,11.61,1111122 
SCCF RECON,ioos:station:SCCF:11:1,2012-07-02T01:00:00Z,26.4679,-82.0631,22.24,1111122 
SCCF RECON,ioos:station:SCCF:11:1,2012-07-02T02:00:00Z,26.4679,-82.0631,23.1,1111122 
SCCF RECON,ioos:station:SCCF:11:1,2012-07-02T03:00:00Z,26.4679,-82.0631,18.13,1111122 
SCCF RECON,ioos:station:SCCF:11:1,2012-07-02T04:00:00Z,26.4679,-82.0631,14.28,1111122 
SCCF RECON,ioos:station:SCCF:11:1,2012-07-02T05:00:00Z,26.4679,-82.0631,14.55,1111122 
SCCF RECON,ioos:station:SCCF:11:1,2012-07-02T06:00:00Z,26.4679,-82.0631,10.99,1111122 
SCCF RECON,ioos:station:SCCF:11:1,2012-07-02T07:00:00Z,26.4679,-82.0631,13.26,1111122 
SCCF RECON,ioos:station:SCCF:11:1,2012-07-02T08:00:00Z,26.4679,-82.0631,11.73,1111122 
SCCF RECON,ioos:station:SCCF:11:1,2012-07-02T09:00:00Z,26.4679,-82.0631,11.18,1111122 
SCCF RECON,ioos:station:SCCF:11:1,2012-07-02T10:00:00Z,26.4679,-82.0631,9.53,1111122 
SCCF RECON,ioos:station:SCCF:11:1,2012-07-02T11:00:00Z,26.4679,-82.0631,9.14,1111122 
SCCF RECON,ioos:station:SCCF:11:1,2012-07-02T12:00:00Z,26.4679,-82.0631,12.18,1111122 
SCCF RECON,ioos:station:SCCF:11:1,2012-07-02T13:00:00Z,26.4679,-82.0631,8.99,1111122 
SCCF RECON,ioos:station:SCCF:11:1,2012-07-02T14:00:00Z,26.4679,-82.0631,10.95,1111122 
SCCF RECON,ioos:station:SCCF:11:1,2012-07-02T15:00:00Z,26.4679,-82.0631,9.97,1111122 
SCCF RECON,ioos:station:SCCF:11:1,2012-07-02T16:00:00Z,26.4679,-82.0631,7.13,1111122 
SCCF RECON,ioos:station:SCCF:11:1,2012-07-02T17:00:00Z,26.4679,-82.0631,7.96,1111122 
SCCF RECON,ioos:station:SCCF:11:1,2012-07-02T18:00:00Z,26.4679,-82.0631,6.64,1111122 
SCCF RECON,ioos:station:SCCF:11:1,2012-07-02T19:00:00Z,26.4679,-82.0631,10.67,1111122 
SCCF RECON,ioos:station:SCCF:11:1,2012-07-02T20:00:00Z,26.4679,-82.0631,9.51,1111122 
SCCF RECON,ioos:station:SCCF:11:1,2012-07-02T21:00:00Z,26.4679,-82.0631,11.06,1111122 
SCCF RECON,ioos:station:SCCF:11:1,2012-07-02T22:00:00Z,26.4679,-82.0631,11.93,1111122 
SCCF RECON,ioos:station:SCCF:11:1,2012-07-02T23:00:00Z,26.4679,-82.0631,12.03,1111122 
SCCF RECON,ioos:station:SCCF:11:1,2012-07-03T00:00:00Z,26.4679,-82.0631,12.23,1111122 
SCCF RECON,ioos:station:SCCF:11:1,2012-07-03T01:00:00Z,26.4679,-82.0631,11.77,1111122 
SCCF RECON,ioos:station:SCCF:11:1,2012-07-03T02:00:00Z,26.4679,-82.0631,19.92,1111122 
SCCF RECON,ioos:station:SCCF:11:1,2012-07-03T03:00:00Z,26.4679,-82.0631,16.89,1111122 
SCCF RECON,ioos:station:SCCF:11:1,2012-07-03T04:00:00Z,26.4679,-82.0631,15.11,1111122 
SCCF RECON,ioos:station:SCCF:11:1,2012-07-03T05:00:00Z,26.4679,-82.0631,12.31,1111122 
SCCF RECON,ioos:station:SCCF:11:1,2012-07-03T06:00:00Z,26.4679,-82.0631,13.43,1111122 
SCCF RECON,ioos:station:SCCF:11:1,2012-07-03T07:00:00Z,26.4679,-82.0631,12.12,1111122 
SCCF RECON,ioos:station:SCCF:11:1,2012-07-03T08:00:00Z,26.4679,-82.0631,12.35,1111122 
SCCF RECON,ioos:station:SCCF:11:1,2012-07-03T09:00:00Z,26.4679,-82.0631,10.84,1111122 
SCCF RECON,ioos:station:SCCF:11:1,2012-07-03T10:00:00Z,26.4679,-82.0631,11.52,1111122 
SCCF RECON,ioos:station:SCCF:11:1,2012-07-03T11:00:00Z,26.4679,-82.0631,9.66,1111122 
SCCF RECON,ioos:station:SCCF:11:1,2012-07-03T12:00:00Z,26.4679,-82.0631,9.91,1111122 
SCCF RECON,ioos:station:SCCF:11:1,2012-07-03T13:00:00Z,26.4679,-82.0631,12.18,1111122 
SCCF RECON,ioos:station:SCCF:11:1,2012-07-03T14:00:00Z,26.4679,-82.0631,11.28,1111122 
SCCF RECON,ioos:station:SCCF:11:1,2012-07-03T15:00:00Z,26.4679,-82.0631,12.32,1111122 
SCCF RECON,ioos:station:SCCF:11:1,2012-07-03T16:00:00Z,26.4679,-82.0631,12.23,1111122 
SCCF RECON,ioos:station:SCCF:11:1,2012-07-03T17:00:00Z,26.4679,-82.0631,8.79,1111122 
SCCF RECON,ioos:station:SCCF:11:1,2012-07-03T18:00:00Z,26.4679,-82.0631,8.69,1111122 
SCCF RECON,ioos:station:SCCF:11:1,2012-07-03T19:00:00Z,26.4679,-82.0631,8.14,1111122 
SCCF RECON,ioos:station:SCCF:11:1,2012-07-03T20:00:00Z,26.4679,-82.0631,10.41,1111122 
SCCF RECON,ioos:station:SCCF:11:1,2012-07-03T21:00:00Z,26.4679,-82.0631,10.05,1111122 
SCCF RECON,ioos:station:SCCF:11:1,2012-07-03T22:00:00Z,26.4679,-82.0631,9.76,1111122 
SCCF RECON,ioos:station:SCCF:11:1,2012-07-03T23:00:00Z,26.4679,-82.0631,12.47,1111122 
SCCF RECON,ioos:station:SCCF:11:1,2012-07-04T00:00:00Z,26.4679,-82.0631,11.33,1111122 
SCCF RECON,ioos:station:SCCF:11:1,2012-07-04T01:00:00Z,26.4679,-82.0631,11.25,1111122 
SCCF RECON,ioos:station:SCCF:11:1,2012-07-04T02:00:00Z,26.4679,-82.0631,9.73,1111122 
SCCF RECON,ioos:station:SCCF:11:1,2012-07-04T03:00:00Z,26.4679,-82.0631,15.42,1111122 
SCCF RECON,ioos:station:SCCF:11:1,2012-07-04T04:00:00Z,26.4679,-82.0631,13.64,1111122 
SCCF RECON,ioos:station:SCCF:11:1,2012-07-04T05:00:00Z,26.4679,-82.0631,12.61,1111122 
SCCF RECON,ioos:station:SCCF:11:1,2012-07-04T06:00:00Z,26.4679,-82.0631,11.96,1111122 
SCCF RECON,ioos:station:SCCF:11:1,2012-07-04T07:00:00Z,26.4679,-82.0631,10.79,1111122 
SCCF RECON,ioos:station:SCCF:11:1,2012-07-04T08:00:00Z,26.4679,-82.0631,13.18,1111122 
SCCF RECON,ioos:station:SCCF:11:1,2012-07-04T09:00:00Z,26.4679,-82.0631,11.06,1111122 
SCCF RECON,ioos:station:SCCF:11:1,2012-07-04T10:00:00Z,26.4679,-82.0631,9.38,1111122 
SCCF RECON,ioos:station:SCCF:11:1,2012-07-04T11:00:00Z,26.4679,-82.0631,8.83,1111122 
SCCF RECON,ioos:station:SCCF:11:1,2012-07-04T12:00:00Z,26.4679,-82.0631,7.54,1111122 
SCCF RECON,ioos:station:SCCF:11:1,2012-07-04T13:00:00Z,26.4679,-82.0631,6.87,1111122 
SCCF RECON,ioos:station:SCCF:11:1,2012-07-04T14:00:00Z,26.4679,-82.0631,9.86,1111122 
SCCF RECON,ioos:station:SCCF:11:1,2012-07-04T15:00:00Z,26.4679,-82.0631,9.75,1111122 
SCCF RECON,ioos:station:SCCF:11:1,2012-07-04T16:00:00Z,26.4679,-82.0631,12.29,1111122 
SCCF RECON,ioos:station:SCCF:11:1,2012-07-04T17:00:00Z,26.4679,-82.0631,10.88,1111122 
SCCF RECON,ioos:station:SCCF:11:1,2012-07-04T18:00:00Z,26.4679,-82.0631,8.95,1111122 
SCCF RECON,ioos:station:SCCF:11:1,2012-07-04T19:00:00Z,26.4679,-82.0631,7.36,1111122 
SCCF RECON,ioos:station:SCCF:11:1,2012-07-04T20:00:00Z,26.4679,-82.0631,9.25,1111122 
SCCF RECON,ioos:station:SCCF:11:1,2012-07-04T21:00:00Z,26.4679,-82.0631,9.29,1111122 
SCCF RECON,ioos:station:SCCF:11:1,2012-07-04T22:00:00Z,26.4679,-82.0631,8.84,1111122 
SCCF RECON,ioos:station:SCCF:11:1,2012-07-04T23:00:00Z,26.4679,-82.0631,9.01,1111122 
SCCF RECON,ioos:station:SCCF:11:1,2012-07-05T00:00:00Z,26.4679,-82.0631,9.57,1111122 
SCCF RECON,ioos:station:SCCF:11:1,2012-07-05T01:00:00Z,26.4679,-82.0631,9.34,1111122 
SCCF RECON,ioos:station:SCCF:11:1,2012-07-05T02:00:00Z,26.4679,-82.0631,9.25,1111122 
SCCF RECON,ioos:station:SCCF:11:1,2012-07-05T03:00:00Z,26.4679,-82.0631,17.46,1111122 
SCCF RECON,ioos:station:SCCF:11:1,2012-07-05T04:00:00Z,26.4679,-82.0631,15.51,1111122 
SCCF RECON,ioos:station:SCCF:11:1,2012-07-05T05:00:00Z,26.4679,-82.0631,13.79,1111122 
SCCF RECON,ioos:station:SCCF:11:1,2012-07-05T06:00:00Z,26.4679,-82.0631,11.23,1111122 
SCCF RECON,ioos:station:SCCF:11:1,2012-07-05T07:00:00Z,26.4679,-82.0631,9.47,1111122 
SCCF RECON,ioos:station:SCCF:11:1,2012-07-05T08:00:00Z,26.4679,-82.0631,12.0,1111122 
SCCF RECON,ioos:station:SCCF:11:1,2012-07-05T09:00:00Z,26.4679,-82.0631,9.05,1111122 
SCCF RECON,ioos:station:SCCF:11:1,2012-07-05T10:00:00Z,26.4679,-82.0631,10.68,1111122 
SCCF RECON,ioos:station:SCCF:11:1,2012-07-05T11:00:00Z,26.4679,-82.0631,12.89,1111122 
SCCF RECON,ioos:station:SCCF:11:1,2012-07-05T12:00:00Z,26.4679,-82.0631,8.02,1111122 
SCCF RECON,ioos:station:SCCF:11:1,2012-07-05T13:00:00Z,26.4679,-82.0631,7.17,1111122 
SCCF RECON,ioos:station:SCCF:11:1,2012-07-05T14:00:00Z,26.4679,-82.0631,9.26,1111122 
SCCF RECON,ioos:station:SCCF:11:1,2012-07-05T15:00:00Z,26.4679,-82.0631,12.0,1111122 
SCCF RECON,ioos:station:SCCF:11:1,2012-07-05T16:00:00Z,26.4679,-82.0631,10.89,1111122 
SCCF RECON,ioos:station:SCCF:11:1,2012-07-05T17:00:00Z,26.4679,-82.0631,12.07,1111122 
SCCF RECON,ioos:station:SCCF:11:1,2012-07-05T18:00:00Z,26.4679,-82.0631,9.25,1111122 
SCCF RECON,ioos:station:SCCF:11:1,2012-07-05T19:00:00Z,26.4679,-82.0631,7.67,1111122 
SCCF RECON,ioos:station:SCCF:11:1,2012-07-05T20:00:00Z,26.4679,-82.0631,10.97,1111122 
SCCF RECON,ioos:station:SCCF:11:1,2012-07-05T21:00:00Z,26.4679,-82.0631,9.4,1111122 
SCCF RECON,ioos:station:SCCF:11:1,2012-07-05T22:00:00Z,26.4679,-82.0631,10.5,1111122 
SCCF RECON,ioos:station:SCCF:11:1,2012-07-05T23:00:00Z,26.4679,-82.0631,8.58,1111122 
SCCF RECON,ioos:station:SCCF:11:1,2012-07-06T00:00:00Z,26.4679,-82.0631,8.58,1111122 
SCCF RECON,ioos:station:SCCF:11:1,2012-07-06T01:00:00Z,26.4679,-82.0631,8.28,1111122 
SCCF RECON,ioos:station:SCCF:11:1,2012-07-06T02:00:00Z,26.4679,-82.0631,7.56,1111122 
SCCF RECON,ioos:station:SCCF:11:1,2012-07-06T03:00:00Z,26.4679,-82.0631,7.2,1111122 
SCCF RECON,ioos:station:SCCF:11:1,2012-07-06T04:00:00Z,26.4679,-82.0631,13.75,1111122 
SCCF RECON,ioos:station:SCCF:11:1,2012-07-06T05:00:00Z,26.4679,-82.0631,13.14,1111122 
SCCF RECON,ioos:station:SCCF:11:1,2012-07-06T06:00:00Z,26.4679,-82.0631,13.6,1111122 
SCCF RECON,ioos:station:SCCF:11:1,2012-07-06T07:00:00Z,26.4679,-82.0631,11.14,1111122 
SCCF RECON,ioos:station:SCCF:11:1,2012-07-06T08:00:00Z,26.4679,-82.0631,8.86,1111122 
SCCF RECON,ioos:station:SCCF:11:1,2012-07-06T09:00:00Z,26.4679,-82.0631,8.84,1111122 
SCCF RECON,ioos:station:SCCF:11:1,2012-07-06T10:00:00Z,26.4679,-82.0631,10.39,1111122 
SCCF RECON,ioos:station:SCCF:11:1,2012-07-06T11:00:00Z,26.4679,-82.0631,8.52,1111122 
SCCF RECON,ioos:station:SCCF:11:1,2012-07-06T12:00:00Z,26.4679,-82.0631,8.15,1111122 
SCCF RECON,ioos:station:SCCF:11:1,2012-07-06T13:00:00Z,26.4679,-82.0631,7.99,1111122 
SCCF RECON,ioos:station:SCCF:11:1,2012-07-06T14:00:00Z,26.4679,-82.0631,8.53,1111122 
SCCF RECON,ioos:station:SCCF:11:1,2012-07-06T15:00:00Z,26.4679,-82.0631,7.69,1111122 
SCCF RECON,ioos:station:SCCF:11:1,2012-07-06T16:00:00Z,26.4679,-82.0631,7.72,1111122 
SCCF RECON,ioos:station:SCCF:11:1,2012-07-06T17:00:00Z,26.4679,-82.0631,8.98,1111122 
SCCF RECON,ioos:station:SCCF:11:1,2012-07-06T18:00:00Z,26.4679,-82.0631,10.89,1111122 
SCCF RECON,ioos:station:SCCF:11:1,2012-07-06T19:00:00Z,26.4679,-82.0631,8.23,1111122 
SCCF RECON,ioos:station:SCCF:11:1,2012-07-06T20:00:00Z,26.4679,-82.0631,10.37,1111122 
SCCF RECON,ioos:station:SCCF:11:1,2012-07-06T21:00:00Z,26.4679,-82.0631,9.02,1111122 
SCCF RECON,ioos:station:SCCF:11:1,2012-07-06T22:00:00Z,26.4679,-82.0631,9.36,1111122 
SCCF RECON,ioos:station:SCCF:11:1,2012-07-06T23:00:00Z,26.4679,-82.0631,8.83,1111122 
SCCF RECON,ioos:station:SCCF:11:1,2012-07-07T00:00:00Z,26.4679,-82.0631,8.67,1111122 
SCCF RECON,ioos:station:SCCF:11:1,2012-07-07T01:00:00Z,26.4679,-82.0631,7.9,1111122 
SCCF RECON,ioos:station:SCCF:11:1,2012-07-07T02:00:00Z,26.4679,-82.0631,7.2,1111122 
SCCF RECON,ioos:station:SCCF:11:1,2012-07-07T03:00:00Z,26.4679,-82.0631,8.44,1111122 
SCCF RECON,ioos:station:SCCF:11:1,2012-07-07T04:00:00Z,26.4679,-82.0631,6.85,1111122 
SCCF RECON,ioos:station:SCCF:11:1,2012-07-07T05:00:00Z,26.4679,-82.0631,12.73,1111122 
SCCF RECON,ioos:station:SCCF:11:1,2012-07-07T06:00:00Z,26.4679,-82.0631,13.23,1111122 
SCCF RECON,ioos:station:SCCF:11:1,2012-07-07T07:00:00Z,26.4679,-82.0631,11.33,1111122 
SCCF RECON,ioos:station:SCCF:11:1,2012-07-07T08:00:00Z,26.4679,-82.0631,10.3,1111122 
SCCF RECON,ioos:station:SCCF:11:1,2012-07-07T09:00:00Z,26.4679,-82.0631,10.96,1111122 
SCCF RECON,ioos:station:SCCF:11:1,2012-07-07T10:00:00Z,26.4679,-82.0631,8.6,1111122 
SCCF RECON,ioos:station:SCCF:11:1,2012-07-07T11:00:00Z,26.4679,-82.0631,8.35,1111122 
SCCF RECON,ioos:station:SCCF:11:1,2012-07-07T12:00:00Z,26.4679,-82.0631,7.93,1111122 
SCCF RECON,ioos:station:SCCF:11:1,2012-07-07T13:00:00Z,26.4679,-82.0631,6.86,1111122 
SCCF RECON,ioos:station:SCCF:11:1,2012-07-07T14:00:00Z,26.4679,-82.0631,8.19,1111122 
SCCF RECON,ioos:station:SCCF:11:1,2012-07-07T15:00:00Z,26.4679,-82.0631,5.85,1111122 
SCCF RECON,ioos:station:SCCF:11:1,2012-07-07T16:00:00Z,26.4679,-82.0631,7.79,1111122 
SCCF RECON,ioos:station:SCCF:11:1,2012-07-07T17:00:00Z,26.4679,-82.0631,7.54,1111122 
SCCF RECON,ioos:station:SCCF:11:1,2012-07-07T18:00:00Z,26.4679,-82.0631,8.1,1111122 
SCCF RECON,ioos:station:SCCF:11:1,2012-07-07T19:00:00Z,26.4679,-82.0631,10.19,1111122 
SCCF RECON,ioos:station:SCCF:11:1,2012-07-07T20:00:00Z,26.4679,-82.0631,9.76,1111122 
SCCF RECON,ioos:station:SCCF:11:1,2012-07-07T21:00:00Z,26.4679,-82.0631,5.17,1111122 
SCCF RECON,ioos:station:SCCF:11:1,2012-07-07T22:00:00Z,26.4679,-82.0631,8.14,1111122 
SCCF RECON,ioos:station:SCCF:11:1,2012-07-07T23:00:00Z,26.4679,-82.0631,8.92,1111122 
SCCF RECON,ioos:station:SCCF:11:1,2012-07-08T00:00:00Z,26.4679,-82.0631,9.6,1111122 
SCCF RECON,ioos:station:SCCF:11:1,2012-07-08T01:00:00Z,26.4679,-82.0631,8.53,1111122 
SCCF RECON,ioos:station:SCCF:11:1,2012-07-08T02:00:00Z,26.4679,-82.0631,7.34,1111122 
SCCF RECON,ioos:station:SCCF:11:1,2012-07-08T03:00:00Z,26.4679,-82.0631,7.44,1111122 
SCCF RECON,ioos:station:SCCF:11:1,2012-07-08T04:00:00Z,26.4679,-82.0631,7.72,1111122 
SCCF RECON,ioos:station:SCCF:11:1,2012-07-08T05:00:00Z,26.4679,-82.0631,10.99,1111122 
SCCF RECON,ioos:station:SCCF:11:1,2012-07-08T06:00:00Z,26.4679,-82.0631,10.23,1111122 
SCCF RECON,ioos:station:SCCF:11:1,2012-07-08T07:00:00Z,26.4679,-82.0631,9.86,1111122 
SCCF RECON,ioos:station:SCCF:11:1,2012-07-08T08:00:00Z,26.4679,-82.0631,9.16,1111122 
SCCF RECON,ioos:station:SCCF:11:1,2012-07-08T09:00:00Z,26.4679,-82.0631,8.32,1111122 
SCCF RECON,ioos:station:SCCF:11:1,2012-07-08T10:00:00Z,26.4679,-82.0631,10.04,1111122 
SCCF RECON,ioos:station:SCCF:11:1,2012-07-08T11:00:00Z,26.4679,-82.0631,8.11,1111122 
SCCF RECON,ioos:station:SCCF:11:1,2012-07-08T12:00:00Z,26.4679,-82.0631,7.02,1111122 
SCCF RECON,ioos:station:SCCF:11:1,2012-07-08T13:00:00Z,26.4679,-82.0631,6.73,1111122 
SCCF RECON,ioos:station:SCCF:11:1,2012-07-08T14:00:00Z,26.4679,-82.0631,6.54,1111122 
SCCF RECON,ioos:station:SCCF:11:1,2012-07-08T15:00:00Z,26.4679,-82.0631,5.87,1111122 
SCCF RECON,ioos:station:SCCF:11:1,2012-07-08T16:00:00Z,26.4679,-82.0631,6.03,1111122 
SCCF RECON,ioos:station:SCCF:11:1,2012-07-08T17:00:00Z,26.4679,-82.0631,6.96,1111122 
SCCF RECON,ioos:station:SCCF:11:1,2012-07-08T18:00:00Z,26.4679,-82.0631,7.3,1111122 
SCCF RECON,ioos:station:SCCF:11:1,2012-07-08T19:00:00Z,26.4679,-82.0631,7.41,1111122 
SCCF RECON,ioos:station:SCCF:11:1,2012-07-08T20:00:00Z,26.4679,-82.0631,6.81,1111122 
SCCF RECON,ioos:station:SCCF:11:1,2012-07-08T21:00:00Z,26.4679,-82.0631,13.78,1111122 
SCCF RECON,ioos:station:SCCF:11:1,2012-07-08T22:00:00Z,26.4679,-82.0631,5.49,1111122 
SCCF RECON,ioos:station:SCCF:11:1,2012-07-08T23:00:00Z,26.4679,-82.0631,7.5,1111122 
SCCF RECON,ioos:station:SCCF:11:1,2012-07-09T00:00:00Z,26.4679,-82.0631,10.33,1111122 
SCCF RECON,ioos:station:SCCF:11:1,2012-07-09T01:00:00Z,26.4679,-82.0631,6.98,1111122 
SCCF RECON,ioos:station:SCCF:11:1,2012-07-09T02:00:00Z,26.4679,-82.0631,7.51,1111122 
SCCF RECON,ioos:station:SCCF:11:1,2012-07-09T03:00:00Z,26.4679,-82.0631,7.87,1111122 
SCCF RECON,ioos:station:SCCF:11:1,2012-07-09T04:00:00Z,26.4679,-82.0631,6.49,1111122 
SCCF RECON,ioos:station:SCCF:11:1,2012-07-09T05:00:00Z,26.4679,-82.0631,5.24,1111122 
SCCF RECON,ioos:station:SCCF:11:1,2012-07-09T06:00:00Z,26.4679,-82.0631,7.36,1111122 
SCCF RECON,ioos:station:SCCF:11:1,2012-07-09T07:00:00Z,26.4679,-82.0631,11.59,1111122 
SCCF RECON,ioos:station:SCCF:11:1,2012-07-09T08:00:00Z,26.4679,-82.0631,9.73,1111122 
SCCF RECON,ioos:station:SCCF:11:1,2012-07-09T09:00:00Z,26.4679,-82.0631,8.14,1111122 
SCCF RECON,ioos:station:SCCF:11:1,2012-07-09T10:00:00Z,26.4679,-82.0631,7.74,1111122 
SCCF RECON,ioos:station:SCCF:11:1,2012-07-09T11:00:00Z,26.4679,-82.0631,7.15,1111122 
SCCF RECON,ioos:station:SCCF:11:1,2012-07-09T12:00:00Z,26.4679,-82.0631,8.3,1111122 
SCCF RECON,ioos:station:SCCF:11:1,2012-07-09T13:00:00Z,26.4679,-82.0631,7.42,1111122 
SCCF RECON,ioos:station:SCCF:11:1,2012-07-09T14:00:00Z,26.4679,-82.0631,6.63,1111122 
SCCF RECON,ioos:station:SCCF:11:1,2012-07-09T15:00:00Z,26.4679,-82.0631,6.88,1111122 
SCCF RECON,ioos:station:SCCF:11:1,2012-07-09T16:00:00Z,26.4679,-82.0631,5.84,1111122 
SCCF RECON,ioos:station:SCCF:11:1,2012-07-09T17:00:00Z,26.4679,-82.0631,5.96,1111122 
SCCF RECON,ioos:station:SCCF:11:1,2012-07-09T18:00:00Z,26.4679,-82.0631,6.63,1111122 
SCCF RECON,ioos:station:SCCF:11:1,2012-07-09T19:00:00Z,26.4679,-82.0631,7.8,1111122 
SCCF RECON,ioos:station:SCCF:11:1,2012-07-09T20:00:00Z,26.4679,-82.0631,7.78,1111122 
SCCF RECON,ioos:station:SCCF:11:1,2012-07-09T21:00:00Z,26.4679,-82.0631,7.31,1111122 
SCCF RECON,ioos:station:SCCF:11:1,2012-07-09T22:00:00Z,26.4679,-82.0631,5.45,1111122 
SCCF RECON,ioos:station:SCCF:11:1,2012-07-09T23:00:00Z,26.4679,-82.0631,6.26,1111122 
SCCF RECON,ioos:station:SCCF:11:1,2012-07-10T00:00:00Z,26.4679,-82.0631,6.94,1111122 
SCCF RECON,ioos:station:SCCF:11:1,2012-07-10T01:00:00Z,26.4679,-82.0631,8.95,1111122 
SCCF RECON,ioos:station:SCCF:11:1,2012-07-10T02:00:00Z,26.4679,-82.0631,7.63,1111122 
SCCF RECON,ioos:station:SCCF:11:1,2012-07-10T03:00:00Z,26.4679,-82.0631,7.28,1111122 
SCCF RECON,ioos:station:SCCF:11:1,2012-07-10T04:00:00Z,26.4679,-82.0631,6.71,1111122 
SCCF RECON,ioos:station:SCCF:11:1,2012-07-10T05:00:00Z,26.4679,-82.0631,6.42,1111122 
SCCF RECON,ioos:station:SCCF:11:1,2012-07-10T06:00:00Z,26.4679,-82.0631,7.22,1111122 
SCCF RECON,ioos:station:SCCF:11:1,2012-07-10T07:00:00Z,26.4679,-82.0631,6.62,1111122 
SCCF RECON,ioos:station:SCCF:11:1,2012-07-10T08:00:00Z,26.4679,-82.0631,5.91,1111122 
SCCF RECON,ioos:station:SCCF:11:1,2012-07-10T09:00:00Z,26.4679,-82.0631,6.5,1111122 
SCCF RECON,ioos:station:SCCF:11:1,2012-07-10T10:00:00Z,26.4679,-82.0631,6.34,1111122 
SCCF RECON,ioos:station:SCCF:11:1,2012-07-10T11:00:00Z,26.4679,-82.0631,6.27,1111122 
SCCF RECON,ioos:station:SCCF:11:1,2012-07-10T12:00:00Z,26.4679,-82.0631,8.1,1111122 
SCCF RECON,ioos:station:SCCF:11:1,2012-07-10T13:00:00Z,26.4679,-82.0631,6.25,1111122 
SCCF RECON,ioos:station:SCCF:11:1,2012-07-10T14:00:00Z,26.4679,-82.0631,9.17,1111122 
SCCF RECON,ioos:station:SCCF:11:1,2012-07-10T15:00:00Z,26.4679,-82.0631,6.45,1111122 
SCCF RECON,ioos:station:SCCF:11:1,2012-07-10T16:00:00Z,26.4679,-82.0631,7.03,1111122 
SCCF RECON,ioos:station:SCCF:11:1,2012-07-10T17:00:00Z,26.4679,-82.0631,6.47,1111122 
SCCF RECON,ioos:station:SCCF:11:1,2012-07-10T18:00:00Z,26.4679,-82.0631,6.19,1111122 
SCCF RECON,ioos:station:SCCF:11:1,2012-07-10T19:00:00Z,26.4679,-82.0631,7.65,1111122 
SCCF RECON,ioos:station:SCCF:11:1,2012-07-10T20:00:00Z,26.4679,-82.0631,9.03,1111122 
SCCF RECON,ioos:station:SCCF:11:1,2012-07-10T21:00:00Z,26.4679,-82.0631,7.27,1111122 
SCCF RECON,ioos:station:SCCF:11:1,2012-07-10T22:00:00Z,26.4679,-82.0631,14.27,1111122 
SCCF RECON,ioos:station:SCCF:11:1,2012-07-10T23:00:00Z,26.4679,-82.0631,10.27,1111122 
SCCF RECON,ioos:station:SCCF:11:1,2012-07-11T00:00:00Z,26.4679,-82.0631,7.31,1111122 
SCCF RECON,ioos:station:SCCF:11:1,2012-07-11T01:00:00Z,26.4679,-82.0631,8.76,1111122 
SCCF RECON,ioos:station:SCCF:11:1,2012-07-11T02:00:00Z,26.4679,-82.0631,6.81,1111122 
SCCF RECON,ioos:station:SCCF:11:1,2012-07-11T03:00:00Z,26.4679,-82.0631,8.17,1111122 
SCCF RECON,ioos:station:SCCF:11:1,2012-07-11T04:00:00Z,26.4679,-82.0631,8.0,1111122 
SCCF RECON,ioos:station:SCCF:11:1,2012-07-11T05:00:00Z,26.4679,-82.0631,7.51,1111122 
SCCF RECON,ioos:station:SCCF:11:1,2012-07-11T06:00:00Z,26.4679,-82.0631,6.18,1111122 
SCCF RECON,ioos:station:SCCF:11:1,2012-07-11T07:00:00Z,26.4679,-82.0631,9.05,1111122 
SCCF RECON,ioos:station:SCCF:11:1,2012-07-11T08:00:00Z,26.4679,-82.0631,8.92,1111122 
SCCF RECON,ioos:station:SCCF:11:1,2012-07-11T09:00:00Z,26.4679,-82.0631,7.6,1111122 
SCCF RECON,ioos:station:SCCF:11:1,2012-07-11T10:00:00Z,26.4679,-82.0631,7.11,1111122 
SCCF RECON,ioos:station:SCCF:11:1,2012-07-11T11:00:00Z,26.4679,-82.0631,9.2,1111122 
SCCF RECON,ioos:station:SCCF:11:1,2012-07-11T12:00:00Z,26.4679,-82.0631,6.59,1111122 
SCCF RECON,ioos:station:SCCF:11:1,2012-07-11T13:00:00Z,26.4679,-82.0631,7.73,1111122 
SCCF RECON,ioos:station:SCCF:11:1,2012-07-11T14:00:00Z,26.4679,-82.0631,6.77,1111122 
SCCF RECON,ioos:station:SCCF:11:1,2012-07-11T15:00:00Z,26.4679,-82.0631,7.79,1111122 
SCCF RECON,ioos:station:SCCF:11:1,2012-07-11T16:00:00Z,26.4679,-82.0631,7.74,1111122 
SCCF RECON,ioos:station:SCCF:11:1,2012-07-11T17:00:00Z,26.4679,-82.0631,7.75,1111122 
SCCF RECON,ioos:station:SCCF:11:1,2012-07-11T18:00:00Z,26.4679,-82.0631,7.39,1111122 
SCCF RECON,ioos:station:SCCF:11:1,2012-07-11T19:00:00Z,26.4679,-82.0631,6.91,1111122 
SCCF RECON,ioos:station:SCCF:11:1,2012-07-11T20:00:00Z,26.4679,-82.0631,5.38,1111122 
SCCF RECON,ioos:station:SCCF:11:1,2012-07-11T21:00:00Z,26.4679,-82.0631,7.92,1111122 
SCCF RECON,ioos:station:SCCF:11:1,2012-07-11T22:00:00Z,26.4679,-82.0631,8.14,1111122 
SCCF RECON,ioos:station:SCCF:11:1,2012-07-11T23:00:00Z,26.4679,-82.0631,7.44,1111122 
SCCF RECON,ioos:station:SCCF:11:1,2012-07-12T00:00:00Z,26.4679,-82.0631,5.98,1111122 
SCCF RECON,ioos:station:SCCF:11:1,2012-07-12T01:00:00Z,26.4679,-82.0631,7.52,1111122 
SCCF RECON,ioos:station:SCCF:11:1,2012-07-12T02:00:00Z,26.4679,-82.0631,7.64,1111122 
SCCF RECON,ioos:station:SCCF:11:1,2012-07-12T03:00:00Z,26.4679,-82.0631,7.76,1111122 
SCCF RECON,ioos:station:SCCF:11:1,2012-07-12T04:00:00Z,26.4679,-82.0631,7.15,1111122 
SCCF RECON,ioos:station:SCCF:11:1,2012-07-12T05:00:00Z,26.4679,-82.0631,5.71,1111122 
SCCF RECON,ioos:station:SCCF:11:1,2012-07-12T06:00:00Z,26.4679,-82.0631,7.23,1111122 
SCCF RECON,ioos:station:SCCF:11:1,2012-07-12T07:00:00Z,26.4679,-82.0631,7.44,1111122 
SCCF RECON,ioos:station:SCCF:11:1,2012-07-12T08:00:00Z,26.4679,-82.0631,4.82,1111122 
SCCF RECON,ioos:station:SCCF:11:1,2012-07-12T09:00:00Z,26.4679,-82.0631,4.42,1111122 
SCCF RECON,ioos:station:SCCF:11:1,2012-07-12T10:00:00Z,26.4679,-82.0631,9.7,1111122 
SCCF RECON,ioos:station:SCCF:11:1,2012-07-12T11:00:00Z,26.4679,-82.0631,6.29,1111122 
SCCF RECON,ioos:station:SCCF:11:1,2012-07-12T12:00:00Z,26.4679,-82.0631,30.15,1111122 